QFA50A YSSY-NZAA

Flight info

Callsign QFA50A
Flight time N/A
Altitude 35000
Route EVONN L521 LUNBI ARAD7B NZAA/05R
Aircraft B738/M-SDE2E3FGHIRWXY/LB1

Departure

Time N/A
Airport Sydney Kingsford Smith International Airport (YSSY)

Arrival

Time 2026-05-06 14:34
Airport Auckland International Airport (NZAA)
Time Latitude Longitude Altitude Speed Heading
2026-05-06 12:33 -35.17334 155.59720 35057 ft 519 kts 107°
2026-05-06 12:33 -35.18414 155.63929 35069 ft 518 kts 107°
2026-05-06 12:33 -35.20561 155.72319 35061 ft 517 kts 107°
2026-05-06 12:34 -35.22697 155.80695 35060 ft 516 kts 107°
2026-05-06 12:34 -35.24816 155.89028 35060 ft 516 kts 107°
2026-05-06 12:35 -35.26938 155.97405 35050 ft 516 kts 107°
2026-05-06 12:35 -35.29063 156.05818 35063 ft 517 kts 107°
2026-05-06 12:36 -35.31187 156.14253 35060 ft 519 kts 107°
2026-05-06 12:36 -35.33309 156.22712 35060 ft 520 kts 106°
2026-05-06 12:37 -35.35442 156.31228 35072 ft 524 kts 106°
2026-05-06 12:37 -35.37318 156.39834 35043 ft 520 kts 101°
2026-05-06 12:38 -35.38837 156.48450 35049 ft 516 kts 101°
2026-05-06 12:38 -35.40384 156.57026 35056 ft 515 kts 102°
2026-05-06 12:39 -35.41998 156.65523 35052 ft 515 kts 102°
2026-05-06 12:39 -35.43668 156.74140 35144 ft 522 kts 102°
2026-05-06 12:40 -35.44511 156.78486 35270 ft 524 kts 102°
2026-05-06 12:40 -35.45352 156.82839 35484 ft 523 kts 102°
2026-05-06 12:40 -35.46185 156.87170 35735 ft 521 kts 102°
2026-05-06 12:40 -35.47015 156.91495 35936 ft 520 kts 102°
2026-05-06 12:41 -35.47841 156.95815 36155 ft 519 kts 102°
2026-05-06 12:41 -35.48662 157.00121 36404 ft 518 kts 102°
2026-05-06 12:41 -35.49479 157.04415 36646 ft 516 kts 102°
2026-05-06 12:41 -35.50283 157.08651 36858 ft 515 kts 102°
2026-05-06 12:42 -35.51093 157.12928 36996 ft 514 kts 102°
2026-05-06 12:42 -35.51902 157.17210 37051 ft 516 kts 102°
2026-05-06 12:42 -35.53525 157.25818 37053 ft 517 kts 102°
2026-05-06 12:43 -35.55137 157.34407 37049 ft 515 kts 102°
2026-05-06 12:43 -35.56738 157.42968 37049 ft 513 kts 102°
2026-05-06 12:44 -35.58326 157.51500 37050 ft 511 kts 102°
2026-05-06 12:44 -35.59905 157.60018 37053 ft 510 kts 101°
2026-05-06 12:45 -35.61464 157.68463 37051 ft 510 kts 101°
2026-05-06 12:46 -35.63810 157.81237 37053 ft 511 kts 101°
2026-05-06 12:46 -35.65372 157.89791 37051 ft 512 kts 101°
2026-05-06 12:47 -35.66930 157.98354 37052 ft 513 kts 101°
2026-05-06 12:47 -35.68485 158.06942 37048 ft 515 kts 101°
2026-05-06 12:48 -35.70039 158.15560 37047 ft 516 kts 101°
2026-05-06 12:48 -35.71577 158.24122 37037 ft 516 kts 101°
2026-05-06 12:49 -35.73122 158.32768 37044 ft 516 kts 101°
2026-05-06 12:49 -35.74661 158.41413 37047 ft 516 kts 101°
2026-05-06 12:50 -35.76192 158.50050 37044 ft 516 kts 101°
2026-05-06 12:50 -35.77717 158.58694 37042 ft 516 kts 101°
2026-05-06 12:51 -35.79226 158.67284 37043 ft 516 kts 101°
2026-05-06 12:51 -35.80735 158.75918 37043 ft 515 kts 101°
2026-05-06 12:52 -35.82237 158.84543 37044 ft 515 kts 100°
2026-05-06 12:52 -35.83733 158.93175 37042 ft 514 kts 100°
2026-05-06 12:53 -35.85220 159.01796 37042 ft 514 kts 100°
2026-05-06 12:53 -35.86688 159.10345 37044 ft 513 kts 100°
2026-05-06 12:54 -35.88160 159.18955 37035 ft 513 kts 100°
2026-05-06 12:54 -35.89626 159.27564 37037 ft 512 kts 100°
2026-05-06 12:55 -35.91085 159.36179 37036 ft 512 kts 100°
2026-05-06 12:55 -35.92535 159.44779 37035 ft 512 kts 100°
2026-05-06 12:56 -35.93971 159.53333 37026 ft 512 kts 99°
2026-05-06 12:56 -35.95410 159.61946 37034 ft 512 kts 99°
2026-05-06 12:57 -35.96842 159.70556 37035 ft 512 kts 99°
2026-05-06 12:57 -35.98269 159.79176 37036 ft 513 kts 99°
2026-05-06 12:58 -35.99692 159.87811 37019 ft 513 kts 99°
2026-05-06 12:58 -36.01108 159.96442 37035 ft 513 kts 99°
2026-05-06 12:59 -36.02519 160.05092 37032 ft 514 kts 99°
2026-05-06 12:59 -36.03926 160.13751 37033 ft 514 kts 99°
2026-05-06 13:00 -36.05326 160.22412 37034 ft 514 kts 99°
2026-05-06 13:00 -36.06721 160.31080 37040 ft 514 kts 99°
2026-05-06 13:01 -36.08101 160.39702 37034 ft 514 kts 99°
2026-05-06 13:01 -36.09483 160.48376 37028 ft 514 kts 99°
2026-05-06 13:02 -36.10861 160.57060 37018 ft 513 kts 98°
2026-05-06 13:02 -36.12218 160.65664 37027 ft 512 kts 98°
2026-05-06 13:03 -36.13576 160.74310 37034 ft 512 kts 98°
2026-05-06 13:03 -36.14925 160.82942 37032 ft 511 kts 98°
2026-05-06 13:04 -36.16268 160.91583 37027 ft 510 kts 98°
2026-05-06 13:04 -36.17602 161.00206 37032 ft 510 kts 98°
2026-05-06 13:05 -36.18931 161.08838 37030 ft 510 kts 98°
2026-05-06 13:05 -36.20250 161.17455 37001 ft 509 kts 98°
2026-05-06 13:06 -36.21563 161.26072 37025 ft 509 kts 98°
2026-05-06 13:06 -36.22872 161.34701 37032 ft 510 kts 98°
2026-05-06 13:07 -36.24176 161.43346 37029 ft 511 kts 98°
2026-05-06 13:07 -36.25467 161.51948 37034 ft 512 kts 97°
2026-05-06 13:08 -36.26762 161.60620 37011 ft 512 kts 97°
2026-05-06 13:08 -36.28053 161.69311 37025 ft 512 kts 97°
2026-05-06 13:09 -36.29338 161.78007 37030 ft 513 kts 97°
2026-05-06 13:09 -36.30617 161.86708 37019 ft 513 kts 97°
2026-05-06 13:10 -36.31890 161.95415 37022 ft 513 kts 97°
2026-05-06 13:10 -36.33157 162.04123 37022 ft 512 kts 97°
2026-05-06 13:11 -36.34409 162.12771 37020 ft 512 kts 97°
2026-05-06 13:11 -36.35659 162.21462 37017 ft 511 kts 97°
2026-05-06 13:12 -36.36902 162.30140 37012 ft 510 kts 97°
2026-05-06 13:12 -36.38137 162.38814 37011 ft 510 kts 97°
2026-05-06 13:13 -36.39363 162.47473 37016 ft 509 kts 96°
2026-05-06 13:13 -36.40581 162.56124 37013 ft 508 kts 96°
2026-05-06 13:14 -36.41793 162.64770 37010 ft 507 kts 96°
2026-05-06 13:14 -36.42988 162.73352 37009 ft 507 kts 96°
2026-05-06 13:15 -36.44183 162.81977 37008 ft 506 kts 96°
2026-05-06 13:15 -36.45371 162.90598 37009 ft 506 kts 96°
2026-05-06 13:16 -36.46545 162.99165 36993 ft 505 kts 96°
2026-05-06 13:16 -36.47718 163.07767 37005 ft 505 kts 96°
2026-05-06 13:17 -36.48885 163.16378 37005 ft 505 kts 96°
2026-05-06 13:17 -36.50045 163.24992 37005 ft 505 kts 96°
2026-05-06 13:18 -36.51201 163.33618 37000 ft 505 kts 95°
2026-05-06 13:18 -36.52156 163.40781 37000 ft 506 kts 95°
2026-05-06 13:19 -36.53302 163.49423 37002 ft 506 kts 95°
2026-05-06 13:19 -36.54440 163.58053 36999 ft 506 kts 95°
2026-05-06 13:20 -36.55574 163.66707 36985 ft 506 kts 95°
2026-05-06 13:20 -36.56702 163.75357 36997 ft 506 kts 95°
2026-05-06 13:21 -36.57816 163.83956 36997 ft 506 kts 95°
2026-05-06 13:21 -36.58930 163.92599 36996 ft 506 kts 95°
2026-05-06 13:22 -36.60037 164.01243 36989 ft 506 kts 95°
2026-05-06 13:22 -36.61137 164.09885 37000 ft 505 kts 95°
2026-05-06 13:23 -36.62230 164.18520 37000 ft 505 kts 95°
2026-05-06 13:23 -36.63315 164.27145 37002 ft 504 kts 95°
2026-05-06 13:24 -36.64394 164.35777 36994 ft 504 kts 95°
2026-05-06 13:24 -36.65458 164.44339 36999 ft 503 kts 95°
2026-05-06 13:25 -36.66521 164.52940 37005 ft 502 kts 95°
2026-05-06 13:25 -36.67578 164.61553 37007 ft 502 kts 95°
2026-05-06 13:26 -36.68626 164.70138 37011 ft 501 kts 95°
2026-05-06 13:26 -36.69668 164.78735 37005 ft 501 kts 95°
2026-05-06 13:27 -36.70697 164.87272 37008 ft 500 kts 95°
2026-05-06 13:27 -36.71724 164.95844 37011 ft 500 kts 95°
2026-05-06 13:28 -36.72745 165.04430 37010 ft 500 kts 94°
2026-05-06 13:28 -36.73759 165.13001 37015 ft 500 kts 94°
2026-05-06 13:29 -36.74768 165.21585 37020 ft 500 kts 94°
2026-05-06 13:29 -36.75769 165.30159 37019 ft 500 kts 94°
2026-05-06 13:30 -36.76765 165.38741 37022 ft 500 kts 94°
2026-05-06 13:30 -36.77754 165.47319 37022 ft 500 kts 94°
2026-05-06 13:31 -36.78731 165.55853 37031 ft 500 kts 94°
2026-05-06 13:31 -36.79711 165.64465 37029 ft 501 kts 94°
2026-05-06 13:32 -36.80684 165.73075 37031 ft 501 kts 94°
2026-05-06 13:32 -36.81651 165.81684 37022 ft 501 kts 94°
2026-05-06 13:33 -36.82612 165.90298 37037 ft 501 kts 94°
2026-05-06 13:33 -36.83566 165.98910 37042 ft 501 kts 94°
2026-05-06 13:34 -36.84508 166.07469 37047 ft 501 kts 94°
2026-05-06 13:34 -36.85451 166.16098 37036 ft 501 kts 94°
2026-05-06 13:35 -36.86389 166.24741 37054 ft 502 kts 94°
2026-05-06 13:35 -36.87321 166.33384 37052 ft 502 kts 94°
2026-05-06 13:36 -36.88247 166.42038 37057 ft 503 kts 94°
2026-05-06 13:36 -36.89168 166.50699 37058 ft 503 kts 95°
2026-05-06 13:37 -36.90084 166.59373 37058 ft 504 kts 94°
2026-05-06 13:37 -36.90987 166.67996 37072 ft 504 kts 94°
2026-05-06 13:38 -36.91891 166.76684 37072 ft 505 kts 94°
2026-05-06 13:38 -36.92790 166.85397 37076 ft 505 kts 94°
2026-05-06 13:39 -36.93684 166.94121 37078 ft 506 kts 95°
2026-05-06 13:39 -36.94573 167.02848 37084 ft 506 kts 95°
2026-05-06 13:40 -36.95456 167.11587 37091 ft 507 kts 95°
2026-05-06 13:40 -36.96333 167.20326 37089 ft 507 kts 94°
2026-05-06 13:41 -36.97204 167.29078 37094 ft 507 kts 95°
2026-05-06 13:41 -36.98067 167.37821 37107 ft 507 kts 95°
2026-05-06 13:42 -36.98924 167.46566 37109 ft 507 kts 95°
2026-05-06 13:42 -36.99775 167.55322 37109 ft 506 kts 95°
2026-05-06 13:43 -37.00619 167.64070 37107 ft 506 kts 95°
2026-05-06 13:43 -37.01452 167.72769 37121 ft 506 kts 95°
2026-05-06 13:44 -37.02282 167.81507 37128 ft 506 kts 95°
2026-05-06 13:44 -37.03106 167.90255 37125 ft 506 kts 95°
2026-05-06 13:45 -37.03924 167.98993 37128 ft 506 kts 95°
2026-05-06 13:45 -37.05137 168.12108 37140 ft 506 kts 95°
2026-05-06 13:46 -37.05938 168.20855 37138 ft 506 kts 95°
2026-05-06 13:46 -37.06728 168.29555 37148 ft 506 kts 95°
2026-05-06 13:47 -37.07519 168.38315 37147 ft 506 kts 96°
2026-05-06 13:47 -37.08301 168.47075 37153 ft 506 kts 95°
2026-05-06 13:48 -37.09077 168.55842 37158 ft 506 kts 95°
2026-05-06 13:48 -37.09846 168.64599 37158 ft 506 kts 95°
2026-05-06 13:49 -37.10608 168.73362 37165 ft 506 kts 95°
2026-05-06 13:49 -37.11364 168.82110 37162 ft 505 kts 95°
2026-05-06 13:50 -37.12113 168.90863 37165 ft 504 kts 95°
2026-05-06 13:50 -37.12848 168.99535 37167 ft 503 kts 95°
2026-05-06 13:51 -37.13581 169.08251 37165 ft 503 kts 95°
2026-05-06 13:51 -37.14307 169.16965 37173 ft 502 kts 95°
2026-05-06 13:52 -37.15026 169.25669 37174 ft 501 kts 95°
2026-05-06 13:52 -37.15737 169.34361 37179 ft 501 kts 95°
2026-05-06 13:53 -37.16442 169.43049 37177 ft 501 kts 95°
2026-05-06 13:53 -37.17139 169.51733 37188 ft 500 kts 95°
2026-05-06 13:54 -37.17826 169.60359 37185 ft 500 kts 95°
2026-05-06 13:54 -37.18510 169.69035 37188 ft 500 kts 95°
2026-05-06 13:55 -37.19188 169.77713 37193 ft 499 kts 95°
2026-05-06 13:55 -37.19858 169.86378 37192 ft 499 kts 95°
2026-05-06 13:56 -37.20522 169.95037 37198 ft 498 kts 95°
2026-05-06 13:56 -37.21179 170.03697 37203 ft 498 kts 95°
2026-05-06 13:57 -37.21829 170.12337 37206 ft 498 kts 95°
2026-05-06 13:57 -37.22472 170.20985 37209 ft 497 kts 95°
2026-05-06 13:58 -37.23104 170.29557 37203 ft 497 kts 95°
2026-05-06 13:58 -37.23733 170.38189 37210 ft 496 kts 95°
2026-05-06 13:59 -37.24355 170.46802 37217 ft 495 kts 95°
2026-05-06 13:59 -37.24971 170.55424 37221 ft 495 kts 95°
2026-05-06 14:00 -37.25580 170.64018 37227 ft 494 kts 95°
2026-05-06 14:00 -37.25774 170.72632 37227 ft 493 kts 87°
2026-05-06 14:01 -37.25429 170.81215 37243 ft 492 kts 86°
2026-05-06 14:01 -37.25060 170.89807 37232 ft 492 kts 86°
2026-05-06 14:02 -37.24765 170.98390 37247 ft 491 kts 87°
2026-05-06 14:02 -37.24508 171.06967 37238 ft 491 kts 87°
2026-05-06 14:03 -37.24255 171.15480 37231 ft 490 kts 87°
2026-05-06 14:03 -37.23991 171.24029 37250 ft 490 kts 87°
2026-05-06 14:04 -37.23718 171.32560 37259 ft 489 kts 87°
2026-05-06 14:04 -37.23438 171.41092 37248 ft 488 kts 87°
2026-05-06 14:05 -37.23154 171.49598 37241 ft 487 kts 87°
2026-05-06 14:05 -37.22913 171.56641 37249 ft 486 kts 87°
2026-05-06 14:06 -37.22618 171.65127 37252 ft 486 kts 87°
2026-05-06 14:06 -37.22269 171.74953 37260 ft 484 kts 87°
2026-05-06 14:07 -37.22012 171.82028 37267 ft 484 kts 87°
2026-05-06 14:07 -37.21701 171.90455 37268 ft 483 kts 87°
2026-05-06 14:08 -37.21387 171.98819 37263 ft 482 kts 87°
2026-05-06 14:08 -37.21064 172.07233 37078 ft 485 kts 87°
2026-05-06 14:09 -37.20900 172.11475 36542 ft 487 kts 87°
2026-05-06 14:09 -37.20734 172.15707 35949 ft 485 kts 87°
2026-05-06 14:09 -37.20566 172.19937 35302 ft 486 kts 87°
2026-05-06 14:09 -37.20397 172.24170 34654 ft 486 kts 87°
2026-05-06 14:10 -37.20226 172.28414 33935 ft 487 kts 87°
2026-05-06 14:10 -37.20053 172.32664 33175 ft 488 kts 86°
2026-05-06 14:10 -37.19879 172.36917 32445 ft 488 kts 86°
2026-05-06 14:10 -37.19703 172.41179 31718 ft 489 kts 86°
2026-05-06 14:11 -37.19525 172.45437 30971 ft 489 kts 86°
2026-05-06 14:11 -37.19348 172.49651 30192 ft 490 kts 86°
2026-05-06 14:11 -37.19166 172.53929 29266 ft 491 kts 85°
2026-05-06 14:11 -37.18983 172.58210 28376 ft 491 kts 85°
2026-05-06 14:12 -37.18799 172.62484 27536 ft 490 kts 85°
2026-05-06 14:12 -37.18615 172.66719 26974 ft 483 kts 85°
2026-05-06 14:12 -37.18432 172.70902 26353 ft 478 kts 85°
2026-05-06 14:12 -37.18249 172.75043 25749 ft 473 kts 85°
2026-05-06 14:13 -37.18067 172.79144 25148 ft 469 kts 85°
2026-05-06 14:13 -37.17884 172.83208 24545 ft 465 kts 85°
2026-05-06 14:13 -37.17702 172.87241 23941 ft 462 kts 84°
2026-05-06 14:13 -37.17519 172.91243 23247 ft 458 kts 84°
2026-05-06 14:14 -37.17336 172.95216 22609 ft 453 kts 84°
2026-05-06 14:14 -37.17155 172.99139 21999 ft 448 kts 84°
2026-05-06 14:14 -37.16974 173.03026 21422 ft 444 kts 84°
2026-05-06 14:14 -37.16793 173.06863 20827 ft 439 kts 84°
2026-05-06 14:15 -37.16614 173.10665 20245 ft 435 kts 84°
2026-05-06 14:15 -37.16436 173.14388 19684 ft 431 kts 84°
2026-05-06 14:15 -37.16257 173.18124 19116 ft 428 kts 84°
2026-05-06 14:15 -37.16078 173.21834 18529 ft 425 kts 84°
2026-05-06 14:16 -37.15899 173.25521 17880 ft 422 kts 84°
2026-05-06 14:16 -37.15721 173.29176 17286 ft 418 kts 84°
2026-05-06 14:16 -37.15544 173.32791 16721 ft 413 kts 84°
2026-05-06 14:16 -37.15368 173.36366 16161 ft 409 kts 84°
2026-05-06 14:17 -37.15192 173.39906 15613 ft 405 kts 83°
2026-05-06 14:17 -37.15016 173.43410 15059 ft 401 kts 83°
2026-05-06 14:17 -37.14834 173.46883 14689 ft 394 kts 83°
2026-05-06 14:17 -37.14635 173.50287 14266 ft 389 kts 83°
2026-05-06 14:18 -37.14431 173.53651 13733 ft 386 kts 82°
2026-05-06 14:18 -37.14227 173.56991 13178 ft 382 kts 83°
2026-05-06 14:18 -37.14027 173.60287 12490 ft 375 kts 82°
2026-05-06 14:18 -37.13838 173.63451 12253 ft 357 kts 83°
2026-05-06 14:19 -37.13654 173.66506 12085 ft 346 kts 82°
2026-05-06 14:19 -37.13476 173.69457 11921 ft 335 kts 81°
2026-05-06 14:19 -37.13300 173.72343 11626 ft 330 kts 82°
2026-05-06 14:19 -37.13125 173.75198 11291 ft 327 kts 82°
2026-05-06 14:20 -37.12950 173.78036 10938 ft 326 kts 82°
2026-05-06 14:20 -37.12781 173.80802 10654 ft 322 kts 82°
2026-05-06 14:20 -37.12611 173.83555 10486 ft 314 kts 81°
2026-05-06 14:20 -37.12445 173.86244 10336 ft 305 kts 82°
2026-05-06 14:21 -37.12282 173.88861 10205 ft 297 kts 81°
2026-05-06 14:21 -37.12124 173.91403 10075 ft 288 kts 82°
2026-05-06 14:21 -37.11969 173.93865 9945 ft 280 kts 82°
2026-05-06 14:21 -37.11816 173.96294 9676 ft 278 kts 82°
2026-05-06 14:22 -37.11663 173.98694 9413 ft 275 kts 81°
2026-05-06 14:22 -37.11511 174.01077 9138 ft 274 kts 82°
2026-05-06 14:22 -37.11359 174.03454 8859 ft 272 kts 82°
2026-05-06 14:22 -37.11208 174.05815 8587 ft 271 kts 82°
2026-05-06 14:23 -37.11058 174.08160 8323 ft 269 kts 81°
2026-05-06 14:23 -37.10907 174.10494 8041 ft 268 kts 81°
2026-05-06 14:23 -37.10757 174.12817 7769 ft 267 kts 81°
2026-05-06 14:23 -37.10610 174.15100 7505 ft 265 kts 81°
2026-05-06 14:24 -37.10462 174.17409 7243 ft 264 kts 81°
2026-05-06 14:24 -37.10314 174.19703 6974 ft 264 kts 81°
2026-05-06 14:24 -37.10166 174.21986 6708 ft 263 kts 81°
2026-05-06 14:24 -37.10019 174.24260 6424 ft 262 kts 81°
2026-05-06 14:25 -37.09871 174.26525 6154 ft 261 kts 81°
2026-05-06 14:25 -37.09723 174.28781 5873 ft 260 kts 81°
2026-05-06 14:25 -37.09579 174.30998 5702 ft 247 kts 81°
2026-05-06 14:25 -37.09447 174.33054 5586 ft 228 kts 80°
2026-05-06 14:26 -37.09323 174.34952 5461 ft 209 kts 79°
2026-05-06 14:26 -37.09209 174.36696 5340 ft 193 kts 79°
2026-05-06 14:26 -37.09100 174.38323 5081 ft 185 kts 79°
2026-05-06 14:26 -37.08994 174.39884 4925 ft 175 kts 78°
2026-05-06 14:27 -37.08889 174.41406 4860 ft 177 kts 78°
2026-05-06 14:27 -37.08780 174.42963 4778 ft 181 kts 79°
2026-05-06 14:27 -37.08674 174.44531 4686 ft 181 kts 78°
2026-05-06 14:27 -37.08569 174.46077 4590 ft 181 kts 78°
2026-05-06 14:28 -37.08460 174.47661 4399 ft 183 kts 79°
2026-05-06 14:28 -37.08353 174.49244 4213 ft 181 kts 79°
2026-05-06 14:28 -37.08249 174.50791 4017 ft 176 kts 78°
2026-05-06 14:28 -37.08148 174.52289 3834 ft 170 kts 78°
2026-05-06 14:29 -37.08007 174.53756 3672 ft 169 kts 72°
2026-05-06 14:29 -37.07696 174.55176 3506 ft 168 kts 65°
2026-05-06 14:29 -37.07320 174.56556 3308 ft 166 kts 64°
2026-05-06 14:29 -37.06941 174.57912 3161 ft 164 kts 64°
2026-05-06 14:30 -37.06571 174.59255 2975 ft 159 kts 64°
2026-05-06 14:30 -37.06221 174.60515 2800 ft 145 kts 64°
2026-05-06 14:30 -37.05906 174.61654 2602 ft 136 kts 62°
2026-05-06 14:30 -37.05596 174.62763 2415 ft 132 kts 62°
2026-05-06 14:31 -37.05296 174.63841 2241 ft 131 kts 63°
2026-05-06 14:31 -37.04999 174.64914 2055 ft 128 kts 62°
2026-05-06 14:31 -37.04705 174.65972 1892 ft 130 kts 63°
2026-05-06 14:31 -37.04410 174.67036 1708 ft 130 kts 65°
2026-05-06 14:32 -37.04113 174.68108 1549 ft 134 kts 65°
2026-05-06 14:32 -37.03806 174.69217 1361 ft 132 kts 66°
2026-05-06 14:32 -37.03514 174.70283 1206 ft 132 kts 64°
2026-05-06 14:32 -37.03213 174.71371 1059 ft 132 kts 65°
2026-05-06 14:33 -37.02906 174.72465 856 ft 136 kts 65°
2026-05-06 14:33 -37.02587 174.73600 679 ft 139 kts 70°
2026-05-06 14:33 -37.02277 174.74734 500 ft 137 kts 71°
2026-05-06 14:33 -37.01971 174.75859 304 ft 135 kts 70°
2026-05-06 14:34 -37.01659 174.76979 102 ft 138 kts 70°
2026-05-06 14:34 -37.01361 174.78056 19 ft 110 kts 70°
2026-05-06 14:34 -37.01182 174.78698 23 ft 44 kts 70°
2026-05-06 14:34 -37.01097 174.78912 23 ft 24 kts 53°
2026-05-06 14:35 -37.01004 174.79026 21 ft 12 kts 43°
2026-05-06 14:35 -37.00945 174.79095 20 ft 11 kts 41°
2026-05-06 14:35 -37.00872 174.79126 20 ft 11 kts 355°
2026-05-06 14:35 -37.00857 174.79121 20 ft 0 kts 341°
2026-05-06 14:36 -37.00831 174.79106 9 ft 8 kts 333°
2026-05-06 14:36 -37.00810 174.79029 12 ft 13 kts 254°
2026-05-06 14:37 -37.00840 174.78922 22 ft 13 kts 251°
2026-05-06 14:37 -37.00869 174.78817 23 ft 13 kts 249°
2026-05-06 14:37 -37.00897 174.78715 29 ft 12 kts 251°
2026-05-06 14:37 -37.00924 174.78615 30 ft 12 kts 251°
2026-05-06 14:38 -37.00948 174.78531 25 ft 10 kts 250°
2026-05-06 14:38 -37.00969 174.78454 27 ft 9 kts 251°
2026-05-06 14:38 -37.00987 174.78377 25 ft 9 kts 261°
2026-05-06 14:38 -37.00994 174.78298 26 ft 9 kts 275°
2026-05-06 14:39 -37.00963 174.78222 26 ft 10 kts 308°
2026-05-06 14:39 -37.00923 174.78139 27 ft 12 kts 298°
2026-05-06 14:39 -37.00870 174.78046 26 ft 15 kts 328°
2026-05-06 14:39 -37.00773 174.78005 25 ft 14 kts 353°
2026-05-06 14:40 -37.00682 174.78038 25 ft 12 kts 20°
2026-05-06 14:40 -37.00613 174.78066 25 ft 8 kts 16°
2026-05-06 14:40 -37.00621 174.78103 25 ft 6 kts 145°
2026-05-06 14:40 -37.00645 174.78140 25 ft 4 kts 128°
2026-05-06 14:41 -37.00655 174.78163 24 ft 3 kts 117°
2026-05-06 14:41 -37.00661 174.78176 24 ft 1 kts 116°